Weather History for Katherine, NT

Change the Weather History Date:

Sunday, September 22, 2013

  Actual Average Record
Temperature  
Mean Temperature 84 °F -  
Max Temperature 91 °F - - ()
Min Temperature 78 °F - - ()
Cooling Degree Days 20    
Growing Degree Days 34 (Base 50)    
Moisture  
Dew Point 64 °F    
Average Humidity 53    
Maximum Humidity 65    
Minimum Humidity 36    
Precipitation  
Precipitation 0.00 in - - ()
Sea Level Pressure  
Sea Level Pressure 29.85 in    
Wind  
Wind Speed 6 mph ()    
Max Wind Speed 16 mph    
Max Gust Speed -    
Visibility 6.2 miles    
Events Rain    
T = Trace of Precipitation, MM = Missing Value Source: Averaged Metar Reports

Daily Weather History Graph

Daily Weather History Graph

Search for Another Location

Airport:

Trip Planner

Search our weather history database for the weather conditions in past years. The results will help you decide how hot, cold, wet, or windy it might be!

Date:

Astronomy

Sep. 22, 2013 Rise Set
Actual Time 6:30 AM ACST 6:36 PM ACST
Civil Twilight 6:08 AM ACST 6:57 PM ACST
Nautical Twilight 5:44 AM ACST 7:22 PM ACST
Astronomical Twilight 5:19 AM ACST 7:47 PM ACST
Moon 9:07 PM ACST (9/22) 8:13 AM ACST (9/22)
Length of Visible Light 12h 48m
Length of Day
12h 06m
Waning Gibbous, 92% of the Moon is Illuminated
Sep 22
Waning Gibbous
Sep 27
Last Quarter
Oct 5
New
Oct 12
First Quarter
Oct 19
Full

Hourly Weather History & Observations

Time (ACST) Temp. Heat Index Dew Point Humidity Pressure Visibility Wind Dir Wind Speed Gust Speed Precip Events Conditions
12:00 AM 84.2 °F 87.3 °F 68.0 °F 58% 29.83 in 6.2 mi NW 13.8 mph - N/A   Unknown
12:30 AM 84.2 °F 87.3 °F 68.0 °F 58% 29.83 in 6.2 mi WNW 11.5 mph - N/A   Unknown
1:00 AM 82.4 °F 85.4 °F 68.0 °F 62% 29.83 in 6.2 mi NW 8.1 mph - N/A   Unknown
1:30 AM 82.4 °F 85.4 °F 68.0 °F 62% 29.83 in 6.2 mi North 4.6 mph - N/A   Unknown
2:00 AM 84.2 °F 86.6 °F 66.2 °F 55% 29.83 in 6.2 mi North 6.9 mph - N/A   Unknown
2:30 AM 82.4 °F 84.6 °F 66.2 °F 58% 29.83 in 6.2 mi North 8.1 mph - N/A   Unknown
3:00 AM 82.4 °F 83.4 °F 62.6 °F 51% 29.83 in 6.2 mi North 6.9 mph - N/A   Scattered Clouds
3:30 AM 82.4 °F 83.4 °F 62.6 °F 51% 29.83 in 6.2 mi North 6.9 mph - N/A   Unknown
4:00 AM 80.6 °F 81.8 °F 62.6 °F 54% 29.83 in 6.2 mi NW 4.6 mph - N/A   Scattered Clouds
4:30 AM 80.6 °F 81.8 °F 62.6 °F 54% 29.86 in 6.2 mi West 3.5 mph - N/A   Unknown
5:00 AM 80.6 °F 81.8 °F 62.6 °F 54% 29.86 in 6.2 mi West 2.3 mph - N/A   Scattered Clouds
5:30 AM 78.8 °F - 64.4 °F 61% 29.86 in 6.2 mi Calm Calm - N/A   Scattered Clouds
6:00 AM 78.8 °F - 64.4 °F 61% 29.86 in 6.2 mi South 3.5 mph - N/A   Scattered Clouds
6:30 AM 78.8 °F - 64.4 °F 61% 29.89 in 6.2 mi ESE 3.5 mph - N/A   Scattered Clouds
7:00 AM 78.8 °F - 64.4 °F 61% 29.89 in 6.2 mi Calm Calm - N/A   Scattered Clouds
7:30 AM 78.8 °F - 64.4 °F 61% 29.89 in 6.2 mi South 3.5 mph - N/A   Mostly Cloudy
8:00 AM 80.6 °F 82.3 °F 64.4 °F 58% 29.92 in 6.2 mi SSW 8.1 mph - N/A   Unknown
8:30 AM 82.4 °F 83.9 °F 64.4 °F 54% 29.92 in 6.2 mi SSW 6.9 mph - N/A   Scattered Clouds
9:00 AM 81 °F - 68 °F 55%  in 6 mi SW 2.3 mph - -   Mostly Cloudy
9:00 AM 82.4 °F 84.6 °F 66.2 °F 58% 29.95 in 6.2 mi SW 10.4 mph - N/A Rain Light Rain Showers
9:30 AM 82.4 °F 84.6 °F 66.2 °F 58% 29.95 in 6.2 mi SW 8.1 mph - N/A   Mostly Cloudy
10:00 AM 82.4 °F 84.6 °F 66.2 °F 58% 29.95 in 6.2 mi West 15.0 mph - N/A   Scattered Clouds
10:30 AM 80.6 °F 82.7 °F 66.2 °F 61% 29.92 in 6.2 mi West 16.1 mph - N/A   Scattered Clouds
11:00 AM 80.6 °F 82.7 °F 66.2 °F 61% 29.92 in 6.2 mi West 10.4 mph - N/A   Mostly Cloudy
11:30 AM 82.4 °F 83.9 °F 64.4 °F 54% 29.92 in 6.2 mi West 10.4 mph - N/A   Unknown
12:00 PM 82.4 °F 83.9 °F 64.4 °F 54% 29.92 in 6.2 mi NW 5.8 mph - N/A   Unknown
12:30 PM 84.2 °F 85.6 °F 64.4 °F 51% 29.89 in 6.2 mi WSW 5.8 mph - N/A   Unknown
1:00 PM 84.2 °F 85.6 °F 64.4 °F 51% 29.89 in 6.2 mi West 4.6 mph - N/A   Unknown
1:30 PM 86.0 °F 87.3 °F 64.4 °F 48% 29.86 in 6.2 mi North 4.6 mph - N/A   Unknown
2:00 PM 86.0 °F 87.3 °F 64.4 °F 48% 29.83 in 6.2 mi NW 3.5 mph - N/A   Unknown
2:30 PM 87.8 °F 89.4 °F 64.4 °F 46% 29.83 in 6.2 mi WSW 4.6 mph - N/A   Unknown
3:00 PM 89.6 °F 90.1 °F 62.6 °F 40% 29.83 in 6.2 mi West 4.6 mph - N/A   Unknown
3:30 PM 91.4 °F 91.4 °F 60.8 °F 36% 29.80 in 6.2 mi WSW 5.8 mph - N/A   Unknown
4:00 PM 89.6 °F 90.1 °F 62.6 °F 40% 29.80 in 6.2 mi WSW 6.9 mph - N/A   Unknown
4:30 PM 89.6 °F 89.5 °F 60.8 °F 38% 29.80 in 6.2 mi West 6.9 mph - N/A   Unknown
5:00 PM 89.6 °F 89.5 °F 60.8 °F 38% 29.80 in 6.2 mi WSW 6.9 mph - N/A   Unknown
5:30 PM 89.6 °F 89.5 °F 60.8 °F 38% 29.80 in 6.2 mi SW 5.8 mph - N/A   Unknown
6:00 PM 89.6 °F 89.5 °F 60.8 °F 38% 29.80 in 6.2 mi SW 5.8 mph - N/A   Unknown
6:30 PM 87.8 °F 87.6 °F 60.8 °F 40% 29.80 in 6.2 mi WSW 4.6 mph - N/A   Scattered Clouds
7:00 PM 86.0 °F 86.6 °F 62.6 °F 45% 29.80 in 6.2 mi WSW 3.5 mph - N/A   Mostly Cloudy
7:30 PM 86.0 °F 86.6 °F 62.6 °F 45% 29.80 in 6.2 mi WSW 2.3 mph - N/A   Scattered Clouds
8:00 PM 84.2 °F 85.6 °F 64.4 °F 51% 29.83 in 6.2 mi WSW 3.5 mph - N/A   Unknown
8:30 PM 84.2 °F 85.6 °F 64.4 °F 51% 29.83 in 6.2 mi Calm Calm - N/A   Unknown
9:00 PM 82.4 °F 84.6 °F 66.2 °F 58% 29.83 in 6.2 mi Calm Calm - N/A   Unknown
9:30 PM 82.4 °F 84.6 °F 66.2 °F 58% 29.83 in 6.2 mi WSW 1.2 mph - N/A   Unknown
10:00 PM 82.4 °F 83.9 °F 64.4 °F 54% 29.83 in 6.2 mi Calm Calm - N/A   Unknown
10:30 PM 80.6 °F 82.7 °F 66.2 °F 61% 29.83 in 6.2 mi WSW 1.2 mph - N/A   Unknown
11:00 PM 80.6 °F 82.7 °F 66.2 °F 61% 29.83 in 6.2 mi Calm Calm - N/A   Unknown
11:30 PM 80.6 °F 83.2 °F 68.0 °F 65% 29.83 in 6.2 mi WSW 3.5 mph - N/A   Unknown